This is the latest recevied weather packets stored in our database for station/object EA1FWM-12. If no packets are shown the sender has not sent any weather packets the latest 10 day(s).
| Time | Temp. | Humidity | Pressure | Rain* | Wind** | Luminosity | Snow |
|---|---|---|---|---|---|---|---|
| 1777470069 | 10.56° C | 84% | 1011.1 hPa | - | - | - | - |
| 1777469213 | 11.11° C | 84% | 1011.1 hPa | - | - | - | - |
| 1777469169 | 11.11° C | 84% | 1011.1 hPa | - | - | - | - |
| 1777468270 | 11.67° C | 84% | 1011.3 hPa | - | - | - | - |
| 1777467370 | 12.22° C | 84% | 1011.3 hPa | - | - | - | - |
| 1777466471 | 12.22° C | 84% | 1011.2 hPa | - | - | - | - |
| 1777464672 | 14.44° C | 84% | 1011.2 hPa | - | - | - | - |
| 1777464113 | 11.67° C | 84% | 1011.3 hPa | - | - | - | - |
| 1777463213 | 11.67° C | 83% | 1011.2 hPa | - | - | - | - |
| 1777462386 | 11.67° C | 83% | 1011.3 hPa | - | - | - | - |
| 1777462313 | 11.67° C | 83% | 1011.3 hPa | - | - | - | - |
| 1777461474 | 12.22° C | 82% | 1011.4 hPa | - | - | - | - |
| 1777461414 | 12.22° C | 82% | 1011.4 hPa | - | - | - | - |
| 1777460514 | 12.78° C | 82% | 1011.3 hPa | - | - | - | - |
| 1777459615 | 12.78° C | 82% | 1011.3 hPa | - | - | - | - |
| 1777458722 | 12.78° C | 82% | 1011.3 hPa | - | - | - | - |
| 1777457816 | 12.78° C | 83% | 1011.4 hPa | - | - | - | - |
| 1777456916 | 12.22° C | 84% | 1011.4 hPa | - | - | - | - |
| 1777456751 | 11.67° C | 83% | 1011.4 hPa | - | - | - | - |
| 1777456016 | 11.67° C | 83% | 1011.4 hPa | - | - | - | - |
| 1777455117 | 11.11° C | 83% | 1011.4 hPa | - | - | - | - |
| 1777454218 | 11.11° C | 83% | 1011.4 hPa | - | - | - | - |
| 1777453318 | 11.67° C | 82% | 1011.4 hPa | - | - | - | - |
| 1777451518 | 11.67° C | 83% | 1011.5 hPa | - | - | - | - |
| 1777450620 | 11.67° C | 83% | 1011.4 hPa | - | - | - | - |
* Rain since midnight (hover to see other rain measurements)
** Current wind speed in m/s (hover to see current wind gust speed)